Regional Weather Roundup
Issued by NWS

Home | Current Version | Previous Version | Text Only | Print | Product List | Glossary Off
Versions: 1 2 3 4 5 6 7 8 9 10 11 12 13 14 15 16 17 18 19 20 21 22 23 24 25 26 27 28 29 30 31 32 33 34 35 36 37 38 39 40 41 42 43 44 45 46 47 48 49 50

000
ASUS43 KMPX 190010
RWRMN
WEATHER ROUNDUP FOR MINNESOTA
NATIONAL WEATHER SERVICE TWIN CITIES/CHANHASSEN MN
700 PM CDT THU SEP 18 2014


NOTE: "FAIR" INDICATES FEW OR NO CLOUDS BELOW 12,000 FEET WITH NO
SIGNIFICANT WEATHER AND/OR OBSTRUCTIONS TO VISIBILITY. N/A MEANS
CURRENT SKY AND/OR WEATHER CONDITIONS ARE NOT AVAILABLE.

MNZ060>063-068>070-190100-
   Twin Cities Metro

CITY           SKY/WX    TMP DP  RH WIND       PRES   REMARKS
TWIN CITIES    PTCLDY    70  52  52 SE8       29.98S
6HR MIN TEMP:  65; 6HR MAX TEMP:  75;

ST PAUL        CLEAR     67  57  70 SE9       29.99S
CRYSTAL        CLEAR     71  52  50 SE7       29.97S
BLAINE         PTCLDY    72  57  60 SE7       29.99R
LAKEVILLE      CLEAR     64  55  72 SE3       29.99S
EDEN PRAIRIE     N/A    N/A N/A N/A MISG        N/A
SOUTH ST PAUL  PTCLDY    69  56  64 SE5       29.99S
LAKE ELMO      FAIR      66  57  72 SE7       30.01S
$$
MNZ001>005-007-008-013>017-022>024-027-028-190100-
   Northwest Minnesota

CITY           SKY/WX    TMP DP  RH WIND       PRES   REMARKS
BEMIDJI        CLOUDY    60  53  75 SE10      29.89F
HALLOCK        CLOUDY    72  55  56 S16G22    29.72F
ROSEAU         MOCLDY    64  55  72 SE9       29.80F
WARROAD        PTCLDY    63  55  77 SE8       29.82S
THIEF RVR FALL MOCLDY    68  55  64 S15G21    29.80S
CROOKSTON      MOCLDY    70  57  64 S16       29.79R
FOSSTON        MOCLDY    66  55  68 SE9G17    29.83F
DETROIT LAKES  MOCLDY    68  57  68 SE13G18   29.86F
MOORHEAD       PTCLDY    73  61  64 S12G18    29.80S
PARK RAPIDS    PTCLDY    64  55  72 SE14      29.90F
MAHNOMEN       FAIR      67  56  69 SE13G20   29.82F
$$
MNZ006-009>011-018-025>026-190100-
   North Central Minnesota

CITY           SKY/WX    TMP DP  RH WIND       PRES   REMARKS
BAUDETTE       CLEAR     62  52  69 SE8       29.84F
FLAG ISLAND    CLEAR     57  52  82 SE8       29.81F
INTL FALLS     PTCLDY    58  50  75 SE9       29.91F
6HR MIN TEMP:  51; 6HR MAX TEMP:  63;

WASKISH        CLEAR     61  54  77 SE9G16    29.88F
BIG FORK       CLEAR     57  50  77 S9        29.95S
LONGVILLE      MOCLDY    57  54  88 SE6       29.95F
GRAND RAPIDS   CLEAR     55  48  76 SE9       29.98S
CRANE LAKE     CLEAR     54  46  76 CALM      29.98S
ORR            CLEAR     55  45  67 SE8       29.94S
COOK           CLEAR     54  46  76 SE9       29.99R
WALKER         FAIR      59  52  79 SE9       29.92F
$$
MNZ012-019>021-037-190100-
   Northeast Minnesota

CITY           SKY/WX    TMP DP  RH WIND       PRES   REMARKS
DULUTH         CLOUDY    46  42  86 E13       30.04F
6HR MIN TEMP:  46; 6HR MAX TEMP:  49;

ELY            CLEAR     46  41  81 SE10      30.02S
HIBBING        CLOUDY    51  45  79 SE12      30.01S
EVELETH        CLOUDY    50  45  81 SE9       30.03S
DULUTH HARBOR  CLOUDY    50  46  87 E16       30.06F
TWO HARBORS    CLOUDY    43  37  81 E10       30.05S
SILVER BAY     PTCLDY    41  39  93 NE7       30.06F
GRAND MARAIS     N/A     46  37  71 E10       30.10F
G MARAIS ARPRT PTCLDY    37  32  81 E3        30.08F
$$
MNZ029>031-032-039>041-046>048-054>057-064-190100-
   West Central Minnesota

CITY           SKY/WX    TMP DP  RH WIND       PRES   REMARKS
FERGUS FALLS   PTCLDY    72  54  53 S13       29.85F
WHEATON        PTCLDY    70  55  60 SE10      29.87S
MORRIS         PTCLDY    72  55  56 SE10      29.88F
ALEXANDRIA     CLEAR     69  56  62 S10       29.93F
ELBOW LAKE     FAIR      69  56  63 SE10      29.87F
WADENA         PTCLDY    66  55  68 SE7       29.91F
GLENWOOD       CLEAR     68  55  64 SE8       29.94S
APPLETON       PTCLDY    73  55  53 S9        29.88F
BENSON         MOCLDY    72  55  56 S9        29.91S
ORTONVILLE     PTCLDY    72  55  56 S8        29.87F
MADISON        PTCLDY    73  57  56 S7        29.89F
WILLMAR        FAIR      70  52  52 S7        29.95S
$$
MNZ033>034-036-042>043-049>051-058-059-190100-
   Central Minnesota

CITY           SKY/WX    TMP DP  RH WIND       PRES   REMARKS
ST CLOUD       CLEAR     69  55  60 SE7       29.96S
6HR MIN TEMP:  63; 6HR MAX TEMP:  75;

SAUK CENTRE    FAIR      68  54  60 SE6       29.94S
PAYNESVILLE    CLEAR     66  50  55 E6        29.95S
AITKIN         CLEAR     61  54  77 SE3       29.97S
PINE RIVER     PTCLDY    57  54  88 SE8       29.98S
BRAINERD       CLEAR     59  54  83 CALM      29.97S
STAPLES        CLEAR     64  55  72 SE5       29.94R
LONG PRAIRIE   FAIR      66  54  63 SE8       29.94S
LITTLE FALLS   CLEAR     64  54  68 E7        29.95S
LITCHFIELD     CLEAR     70  54  56 SE3       29.96S
BUFFALO        CLEAR     68  53  57 SE5       29.98S
MAPLE LAKE     CLEAR     68  57  66 SE3       29.98S
$$
MNZ037-044-045-052-053-190100-
   East Central Minnesota

CITY           SKY/WX    TMP DP  RH WIND       PRES   REMARKS
PRINCETON      CLEAR     70  57  64 VRB6      29.98S
MORA           CLEAR     61  54  77 SE5       30.01S
CAMBRIDGE      CLEAR     66  55  68 E3        29.97S
RUSH CITY      CLEAR     63  56  80 SE3       30.00F
MOOSE LAKE     CLEAR     52  46  82 NE3       30.00F
HINCKLEY       FAIR      61  55  82 E6        30.00F
CLOQUET        PTCLDY    46  43  87 E6        30.03F
MCGREGOR       CLEAR     55  52  88 E5        30.00S
$$
MNZ071>073-080-081-089-090-097-098-190100-
   Southwest Minnesota

CITY           SKY/WX    TMP DP  RH WIND       PRES   REMARKS
MONTEVIDEO     PTCLDY    72  55  56 S7        29.92S
GRANITE FALLS  PTCLDY    71  53  53 SE7       29.94S
CANBY          PTCLDY    69  56  62 SE8       29.91S
MARSHALL       PTCLDY    72  54  53 S9        29.92F
REDWOOD FALLS  PTCLDY    70  53  54 SE10      29.94S
OLIVIA         PTCLDY    70  52  52 SE7       29.94S
PIPESTONE      CLEAR     70  54  56 S9        29.93F
WINDOM         CLEAR     70  48  46 S6        29.97S
WORTHINGTON    CLEAR     66  48  52 S8        29.98R
JACKSON        PTCLDY    70  48  46 S7        29.99R
TRACY          CLEAR     69  55  59 CALM      29.94F
SLAYTON        PTCLDY    66  52  59 CALM      29.96S
$$
MNZ065>067-074>077-082>085-091>093-190100-
   South Central Minnesota

CITY           SKY/WX    TMP DP  RH WIND       PRES   REMARKS
MANKATO        CLEAR     70  48  46 S9        29.98S
NEW ULM        CLEAR     68  52  56 S7        29.96S
ST JAMES       CLEAR     70  48  46 SE7       29.98S
FAIRMONT       CLEAR     68  43  40 S9        29.99R
GLENCOE        CLEAR     71  50  47 SE6       29.96S
FARIBAULT      CLEAR     72  48  43 SE5       30.00S
OWATONNA       CLEAR     68  52  56 S7        30.01S
WASECA         CLEAR     66  46  48 SE7       30.01S
ALBERT LEA     CLEAR     68  52  56 S7        30.01S
$$
MNZ078>079-086>088-094>096-190100-
   Southeast Minnesota

CITY           SKY/WX    TMP DP  RH WIND       PRES   REMARKS
ROCHESTER      CLEAR     65  53  65 SE7       30.04S
6HR MIN TEMP:  65; 6HR MAX TEMP:  72;

RED WING       CLEAR     66  55  68 SE10      30.00F
STANTON        CLEAR     69  53  56 S3        29.99S
DODGE CENTER   CLEAR     64  54  68 S7        30.03S
WINONA         CLEAR     63  55  77 SE6       30.05S
AUSTIN         CLEAR     66  52  59 S5        30.03
PRESTON        PTCLDY    64  59  82 SE5       30.05S
$$
ABBREVIATIONS USED IN REMARKS
   TC - TEMPERATURES IN CELSIUS
  WCI - WIND CHILL INDEX
   HX - HEAT INDEX
  VSB - VISIBILITY
$$


USA.gov is the U.S. government's official web portal to all federal, state and local government web resources and services.